User: anonymous   Login
Location: Unspecified
(0.0000°N, 0.0000°E)
Time: 10:09:29
(UTC+00:00)
Language:

IBEX - Orbit

View from above orbital plane
View from above orbital plane
View from above satellite
View from above satellite

Ground track
Ground track

The orbit data is extracted from the following two-line orbital elements,

1 33401U 08051A   15218.65704320 -.00002533  00000-0  00000+0 0  9992
2 33401 016.7980 095.7415 6077760 076.3083 350.5583 00.11596063  2883
Epoch (UTC): 06 August 2015 15:46:08
Eccentricity: 0.6077760
inclination: 16.7980°
perigee height: 63294 km
apogee height: 279215 km
right ascension of ascending node: 95.7415°
argument of perigee: 76.3083°
revolutions per day: 0.11596063
mean anomaly at epoch: 350.5583°
orbit number at epoch: 288

The dashed part of the orbit path shows where the satellite is in the earth's shadow,  

DLR